Location: Unspecified
(33.6682°S, 0.0000°E)
Time: 04:36:25
(UTC+00:00)

Vanguard 2 Rocket - Pass Details

Date: 25 June 2019
Orbit: 554 x 3326 km, 32.9° (Epoch: 23 July)

Event Time Altitude Azimuth Distance (km) Brightness Sun altitude
Rises 03:40:48 0° 351° (N) 7,154 11.4 -41.5°
Reaches altitude 10° 03:48:42 10° 9° (N) 6,271 11.2 -39.9°
Maximum altitude 03:59:12 17° 41° (NE) 5,568 11.2 -37.7°
Drops below altitude 10° 04:08:45 10° 73° (ENE) 5,711 11.7 -35.7°
Sets 04:15:06 0° 91° (E) 6,280 12.2 -34.4°
